Location: Fort Worth, Tx
(32.7431°N, 97.3695°W)
Time: 16:26:35
(UTC-04:00)

Tiangong - Visible Passes

Search period start: 26 May 2024 00:00
Search period end: 05 June 2024 00:00
Orbit: 370 x 373 km, 41.5° (Epoch: 26 May)

Date Brightness Start Highest point End Pass type
(mag) Time Alt. Az. Time Alt. Az. Time Alt. Az.
26 May 0.0 05:09:14 23° N 05:09:14 23° N 05:11:27 10° NE visible
26 May 0.6 06:44:07 10° NW 06:46:07 16° N 06:48:06 10° NE visible
27 May 0.5 05:40:04 11° NW 05:41:59 16° N 05:44:01 10° NE visible
28 May 0.9 04:38:55 16° NNE 04:38:55 16° NNE 04:40:06 10° NE visible
28 May 0.6 06:12:55 10° NW 06:15:02 17° N 06:17:08 10° NE visible
29 May 0.6 05:09:41 14° NNW 05:10:44 16° N 05:12:43 10° NE visible
29 May 0.0 06:45:15 10° NW 06:47:54 26° NNE 06:50:33 10° ENE visible
30 May 0.5 05:41:17 10° NW 05:43:36 19° N 05:45:54 10° ENE visible
31 May 0.8 04:39:25 16° N 04:39:25 16° N 04:41:12 10° NE visible
31 May -0.5 06:13:21 10° NW 06:16:13 35° NNE 06:19:04 10° E visible
01 Jun 0.2 05:10:30 18° NNW 05:11:48 23° NNE 05:14:20 10° ENE visible
01 Jun -2.3 06:45:27 10° WNW 06:48:31 72° SSW 06:51:34 10° SE visible
02 Jun -1.4 05:41:56 16° NW 05:44:10 52° NNE 05:47:10 10° ESE visible
03 Jun 0.9 04:41:57 13° ENE 04:41:57 13° ENE 04:42:23 10° E visible
03 Jun -1.8 06:13:58 15° W 06:16:11 40° SSW 06:19:05 10° SE visible
03 Jun -1.4 22:41:32 10° SSW 22:44:15 29° SE 22:44:46 28° SE visible
04 Jun 0.7 05:14:40 11° ESE 05:14:40 11° ESE 05:14:47 10° ESE visible
04 Jun -0.1 06:47:00 10° WSW 06:47:52 11° SW 06:48:44 10° SSW visible
04 Jun -2.0 23:13:02 10° WSW 23:16:04 70° NNW 23:17:20 31° NE visible
